AO-07 1 07530U 74089B 26034.24236321 -.00000047 00000-0 -18851-5 0 9992 2 07530 101.9970 46.0630 0012295 28.0170 34.0742 12.53695596343731 UO-11 1 14781U 84021B 26033.89728642 .00001659 00000-0 17615-3 0 9990 2 14781 97.7887 1.1450 0006039 268.8201 91.2325 14.90368519237128 AO-27 1 22825U 93061C 26034.16380432 .00000129 00000-0 66192-4 0 9990 2 22825 98.7057 101.5348 0009252 129.6165 230.5836 14.30900640687833 FO-29 1 24278U 96046B 26034.19408352 -.00000002 00000-0 30848-4 0 9995 2 24278 98.5426 261.2725 0350890 84.1018 279.9997 13.53266375455042 GO-32 1 25397U 98043D 26034.25009873 .00000098 00000-0 62681-4 0 9993 2 25397 98.9980 23.6908 0000579 191.1281 168.9884 14.24395750432264 ISS 1 25544U 98067A 26034.04958920 .00010142 00000-0 19604-3 0 9993 2 25544 51.6308 243.5964 0011016 59.0626 301.1443 15.48354905550960 NO-44 1 26931U 01043C 26033.98358421 .00000155 00000-0 88839-4 0 9994 2 26931 67.0489 231.3694 0007059 266.6155 93.4139 14.31891180271237 SO-50 1 27607U 02058C 26033.88189073 .00001744 00000-0 22421-3 0 9995 2 27607 64.5523 184.4092 0074225 286.9857 72.3123 14.82636473244543 CO-55 1 27844U 03031E 26034.28074081 .00000390 00000-0 18801-3 0 9990 2 27844 98.6772 44.5100 0009040 208.8808 151.1871 14.24235603172618 CO-57 1 27848U 03031J 26033.49974978 .00000306 00000-0 15349-3 0 9991 2 27848 98.6800 43.5598 0008628 230.8154 129.2259 14.23534439172214 RS-22 1 27939U 03042A 26034.29721155 .00001579 00000-0 25319-3 0 9991 2 27939 98.3390 214.9099 0010979 339.0228 144.9636 14.73150158195835 CO-58 1 28895U 05043F 26033.85001037 .00002007 00000-0 32661-3 0 9992 2 28895 98.2771 186.8334 0013155 271.7217 88.2482 14.72154990 81983 CO-65 1 32785U 08021C 26034.27794869 .00007811 00000-0 51318-3 0 9991 2 32785 97.8155 13.1613 0010805 118.5458 241.6859 15.07850272965005 CO-66 1 32791U 08021J 26033.69555460 .00020780 00000-0 77376-3 0 9997 2 32791 97.7480 25.7247 0005607 75.7085 284.4775 15.27492767966723 RS-30 1 32953U 08025A 26034.34351890 .00000019 00000-0 65710-4 0 9998 2 32953 82.4999 78.7018 0018442 241.5286 118.3936 12.43174428803067 SRMSAT 1 37841U 11058D 26033.71249579 .00000441 00000-0 95475-4 0 9999 2 37841 19.9706 153.3990 0011659 163.8935 340.6361 14.11533774738797 ZACUBE-1 1 39417U 13066B 26034.11121803 .00008054 00000-0 64316-3 0 9992 2 39417 97.8162 355.7742 0041193 339.3739 20.5820 14.99864823660628 Delfi-N3xt 1 39428U 13066N 26034.24025861 .00011880 00000-0 10836-2 0 9993 2 39428 97.8355 314.8736 0075948 292.7528 66.5678 14.93044150654627 GOMX-1 1 39430U 13066Q 26034.29112229 .00002749 00000-0 42001-3 0 9990 2 39430 97.6576 243.1387 0130286 146.9628 213.9804 14.68939806650254 LO-74 1 39440U 13066AA 26033.84075730 .00004226 00000-0 40275-3 0 9999 2 39440 97.8771 342.4841 0060496 111.9858 248.7803 14.92530025656948 AO-73 1 39444U 13066AE 26034.12648135 .00011948 00000-0 78569-3 0 9996 2 39444 97.8132 3.1110 0036454 301.3714 58.3948 15.07186925659453 DTUSAT-2 1 40030U 14033W 26034.20709991 .00009271 00000-0 53111-3 0 9993 2 40030 98.0805 23.6847 0007524 346.0696 14.0325 15.12832867632415 EO-80 1 40032U 14033Y 26033.68493488 .00009922 00000-0 56640-3 0 9990 2 40032 98.0690 22.4550 0005587 276.1827 83.8766 15.12949507632315 LILACSAT-2 1 40908U 15049K 26034.24024087 .00018673 00000-0 37479-3 0 9990 2 40908 97.4854 66.2946 0008397 31.4652 328.7098 15.46695245575013 Horyu-4 1 41340U 16012D 26034.10674097 .00070187 00000-0 92169-3 0 9994 2 41340 30.9929 308.8067 0002614 27.6902 332.3888 15.57174020549709 Lapan A3 1 41603U 16040E 26034.28154854 .00004414 00000-0 14470-3 0 9999 2 41603 97.1453 34.9519 0012027 129.0421 231.1894 15.32063443534301 CAS-2T 1 41847U 16066G 26034.20844647 .00001960 00000-0 28372-3 0 9994 2 41847 98.3952 111.4284 0343247 175.7803 184.6418 14.44337153485450 TechnoSat 1 42829U 17042E 26034.16707336 .00004348 00000-0 31831-3 0 9995 2 42829 97.4093 197.1461 0017780 185.7252 174.3774 15.03943559466554 AO-91 1 43017U 17073E 26034.14740568 .00008707 00000-0 39777-3 0 9991 2 43017 97.4906 264.1819 0159446 70.6963 291.1433 15.10082928445140 S-Net D 1 43186U 18014G 26034.20587395 .00007207 00000-0 38742-3 0 9993 2 43186 97.5476 299.8964 0010038 116.1844 244.0422 15.15145919438460 S-Net B 1 43187U 18014H 26034.21481127 .00007241 00000-0 38949-3 0 9998 2 43187 97.5479 299.8874 0010740 112.6511 247.5858 15.15117485438464 S-Net A 1 43188U 18014J 26034.20536589 .00007161 00000-0 38485-3 0 9997 2 43188 97.5490 300.0631 0010664 113.1768 247.0588 15.15151818438462 S-Net C 1 43189U 18014K 26034.21798895 .00007419 00000-0 39887-3 0 9992 2 43189 97.5504 300.1293 0012122 107.8014 252.4542 15.15109691437011 Ten-Koh 1 43677U 18084G 26034.07423441 .00003489 00000-0 26970-3 0 9999 2 43677 98.0713 220.8239 0009117 207.3444 152.7300 15.02191300396025 PO-101 1 43678U 18084H 26034.29800690 .00001090 00000-0 93398-4 0 9994 2 43678 98.1070 224.9204 0008087 234.8666 125.1799 14.99786437396141 QO-100 1 43700U 18090A 26033.49406449 .00000134 00000-0 00000-0 0 9994 2 43700 0.0201 91.0921 0002326 262.4360 342.7843 1.00273144 26323 MinXSS-2 1 43758U 18099A 26034.19370982 .00031637 00000-0 84596-3 0 9993 2 43758 97.4703 107.3695 0009095 34.5282 325.6552 15.37966378393476 AO-95 1 43770U 18099N 26034.10484618 .00013642 00000-0 57422-3 0 9994 2 43770 97.4586 95.0296 0010588 99.3573 260.8862 15.23440273392783 SNUSat 2 1 43782U 18099AA 26034.10095511 .00010426 00000-0 49376-3 0 9993 2 43782 97.4263 89.6287 0011774 50.5681 309.6594 15.19455354392655 SnugLite 1 43784U 18099AC 26034.07829387 .00013492 00000-0 56188-3 0 9992 2 43784 97.4079 89.8529 0004061 59.6826 300.4812 15.23846659392878 ITASat 1 1 43786U 18099AE 26034.15323599 .00008542 00000-0 43343-3 0 9996 2 43786 97.4237 88.3830 0014593 99.4122 260.8762 15.17072778392573 EAGLET 1 1 43790U 18099AJ 26034.07314825 .00004857 00000-0 28806-3 0 9996 2 43790 97.4440 87.2637 0013017 89.7889 270.4833 15.11744415392067 ESEO 1 43792U 18099AL 26034.05528683 .00002369 00000-0 17645-3 0 9990 2 43792 97.4173 77.0928 0013495 73.6570 286.6139 15.03762380391644 JO-97 1 43803U 18099AX 26034.14549621 .00017381 00000-0 61971-3 0 9999 2 43803 97.4331 96.8428 0006774 37.4853 322.6858 15.28946200393116 Suomi 100 1 43804U 18099AY 26034.11397577 .00014618 00000-0 58762-3 0 9992 2 43804 97.4395 95.2005 0011349 39.7444 320.4623 15.24968247392965 ISAT 1 43879U 18111D 26033.51452035 .00055585 00000-0 10995-2 0 9996 2 43879 97.5913 320.4720 0009190 77.2523 282.9752 15.46881531390234 UWE-4 1 43880U 18111E 26033.29847592 .00028230 00000-0 76433-3 0 9996 2 43880 97.5871 316.3704 0012019 89.0302 271.2319 15.37572892389993 Sparrow 1 43881U 18111F 26034.25201284 .00061004 00000-0 10838-2 0 9998 2 43881 97.6110 325.3502 0008058 98.6086 261.6078 15.49956275390485 Prox-1 1 44339U 19036A 26034.01815071 .00016854 00000-0 18091-2 0 9995 2 44339 23.9955 288.0826 0006904 284.1289 75.8442 14.86906944353456 Taurus 1 1 44530U 19059C 26034.26373723 .00009390 00000-0 15653-2 0 9991 2 44530 98.6255 191.0631 0008327 12.2437 347.8968 14.70201127338951 TO-108 1 44881U 19093C 26034.28383325 .00001191 00000-0 14136-3 0 9996 2 44881 97.7682 109.7260 0013906 162.1929 197.9777 14.86255640331522 FloripaSat 1 1 44885U 19093G 26034.21788017 .00010166 00000-0 77583-3 0 9997 2 44885 97.7905 127.6574 0011934 159.0981 201.0733 15.02140350332523 RS-44 1 44909U 19096E 26034.16112738 .00000030 00000-0 65773-4 0 9990 2 44909 82.5176 68.7705 0218651 97.7315 264.8672 12.79746828285201 SALSAT 1 46495U 20068K 26034.22273685 .00010505 00000-0 39328-3 0 9993 2 46495 97.8824 29.3809 0011952 58.2989 301.9412 15.27436782294895 CSS (TIANHE-1) 1 48274U 21035A 26034.27084582 .00017586 00000-0 22202-3 0 9995 2 48274 41.4675 57.3449 0006248 348.4531 11.6163 15.59135359272234 CUTE 1 49263U 21088D 26034.21833808 .00045122 00000-0 48327-3 0 9992 2 49263 97.4277 124.5723 0004622 79.9812 280.1968 15.63715620241485 TeikyoSat 4 1 49396U 21102B 26034.32693311 .00002005 00000-0 13069-3 0 9999 2 49396 97.3836 68.9442 0013254 39.9505 320.2697 15.08940302232534 Z-Sat 1 49399U 21102E 26034.29204241 .00003829 00000-0 19614-3 0 9995 2 49399 97.3514 73.6564 0017004 0.3946 359.7298 15.17052625233139 KOSEN 1 1 49402U 21102H 26034.09515336 .00008603 00000-0 35013-3 0 9994 2 49402 97.3392 78.9109 0013308 327.1608 32.8801 15.24667912233575 HO-113 1 50466U 21131B 26034.27725685 .00000633 00000-0 20975-3 0 9994 2 50466 98.5004 127.4264 0004995 132.1981 227.9633 14.41202660215823 SNUGLITE 2 1 52899U 22065F 26033.88506413 .00001383 00000-0 27291-3 0 9996 2 52899 98.1972 179.1432 0008620 87.0969 273.1220 14.64024503191347 UmKA 1 (RS40S) 1 57172U 23091G 26034.19271717 .00007615 00000-0 36591-3 0 9993 2 57172 97.5251 93.4382 0012300 222.3725 137.6561 15.19051912143653 CubeBel-2 (EU11S) 1 57175U 23091K 26034.28499900 .00013690 00000-0 53899-3 0 9992 2 57175 97.5248 96.5181 0009733 221.8230 138.2265 15.25697869143869 RS-38S 1 57189U 23091Z 26034.27780748 .00018682 00000-0 61713-3 0 9999 2 57189 97.5272 101.4236 0007992 180.1671 179.9569 15.31408517144169 SONATE-2 1 59112U 24043Q 26033.86108058 .00033986 00000-0 63523-3 0 9992 2 59112 97.5356 177.2020 0008289 339.9086 20.1837 15.48637545107039 MO-122 1 60209U 24125G 26034.07643400 .00041736 00000-0 72848-3 0 9993 2 60209 97.2486 249.6261 0013773 358.9234 1.1986 15.50476960 88701 GRBBeta 1 60237U 24128C 26034.17123352 .00005733 00000-0 39974-3 0 9997 2 60237 61.9924 326.0495 0054204 106.9866 253.7176 15.05377014 86087 Curium One 1 60242U 24128H 26034.19573277 .00011758 00000-0 70688-3 0 9991 2 60242 61.9811 319.5248 0054001 103.9827 256.7281 15.10047463 86202 ROBUSTA-3A 1 60243U 24128J 26034.22323626 .00011772 00000-0 72079-3 0 9999 2 60243 61.9888 321.2041 0054613 101.3288 259.3950 15.09355271 86186 CatSat 1 60246U 24125J 26034.01704115 .00045210 00000-0 92973-3 0 9991 2 60246 97.2253 245.9940 0029571 319.5999 40.3054 15.45356757 86581 HYPERVIEW-1G (RS66S) 1 61772U 24199AP 26034.27843399 .00056516 00000-0 88463-3 0 9993 2 61772 97.3148 269.5585 0011188 53.1812 307.0466 15.53498083113755 AO-123 1 61781U 24199AY 26034.29719586 .00011636 00000-0 36249-3 0 9994 2 61781 97.3203 264.2071 0015967 70.1907 290.1056 15.33296766113391 HADES-R (SO-124) 1 62690U 25009CK 26032.99082620 .05664363 23962-5 28116-2 0 9998 2 62690 97.3536 123.7794 0009923 302.1245 57.9081 16.20799086 58844 HYDRA-T 1 62692U 25009CM 26028.19742799 .10589489 24473-5 20739-2 0 9999 2 62692 97.3569 119.0624 0010828 297.3030 62.7162 16.31546071 58115 JINJUSat 1B 1 63210U 25052A 26034.18552944 .00019660 00000-0 70342-3 0 9990 2 63210 97.4170 291.0831 0003086 166.5848 193.5475 15.28822478 49599 NUSHSAT 1 1 63211U 25052B 26034.20418684 .00022717 00000-0 77706-3 0 9994 2 63211 97.4150 291.3081 0002872 168.1772 191.9537 15.30261156 49611 TEVEL2-4 1 63213U 25052D 26034.16547669 .00018530 00000-0 65149-3 0 9993 2 63213 97.4075 290.7059 0001645 174.3644 185.7615 15.29409185 49590 TEVEL2-5 1 63214U 25052E 26034.23935489 .00020323 00000-0 71625-3 0 9992 2 63214 97.4069 290.7591 0001614 173.1600 186.9662 15.29311707 49609 TEVEL2-6 1 63215U 25052F 26034.24822677 .00020716 00000-0 73100-3 0 9994 2 63215 97.4073 290.7545 0001684 176.7075 183.4176 15.29267944 49601 TEVEL2-1 1 63217U 25052H 26034.23749943 .00019634 00000-0 70117-3 0 9991 2 63217 97.4049 290.5088 0001218 201.0424 159.0766 15.28887177 49596 TEVEL2-3 1 63218U 25052J 26034.23581133 .00020047 00000-0 71514-3 0 9999 2 63218 97.4050 290.5155 0001238 203.2924 156.8260 15.28917829 49597 TEVEL2-2 1 63219U 25052K 26033.25644546 .00019284 00000-0 68965-3 0 9996 2 63219 97.4054 289.5334 0001115 215.6514 144.4652 15.28844945 49445 TEVEL2-9 1 63237U 25052AD 26034.18912955 .00020291 00000-0 76074-3 0 9991 2 63237 97.4110 290.0887 0004631 256.2640 103.8083 15.27269985 49547 TEVEL2-7 1 63238U 25052AE 26034.14333435 .00017835 00000-0 67314-3 0 9995 2 63238 97.4114 290.0049 0004698 256.9900 103.0815 15.27075331 49535 TEVEL2-8 1 63239U 25052AF 26034.21536084 .00018959 00000-0 71572-3 0 9998 2 63239 97.4108 290.0588 0004765 256.9045 103.1662 15.27055713 49546 HYDRA-W 1 63490U 25052BL 26034.25636336 .00128380 00000-0 20995-2 0 9994 2 63490 97.4009 294.1450 0003049 209.6644 150.4436 15.52064369 49833 HADES-ICM (SO-125) 1 63492U 25052BN 26033.95191145 .00094639 00000-0 17677-2 0 9998 2 63492 97.4022 293.3634 0003463 229.7496 130.3452 15.48414396 49753 Dragonfly 1 65729U 98067XH 26031.05194254 .08662331 12285-4 96629-3 0 9997 2 65729 51.6000 237.6139 0006569 265.0285 94.9990 16.36242872 20999 RSP-03 1 65732U 98067XL 26033.90971998 .00508006 11474-3 13264-2 0 9996 2 65732 51.6179 226.8088 0005234 241.8921 118.1558 15.94343295 21400 BOTAN 1 65942U 98067XP 26033.58862757 .00279051 00000-0 13893-2 0 9998 2 65942 51.6178 234.4784 0005490 227.7528 132.3009 15.80550278 18018 CEVROSAT1 1 66309U 25248S 26034.23438941 .00006479 00000-0 31827-3 0 9994 2 66309 45.4049 119.1214 0002813 346.8033 13.2779 15.18866374 14139 SPIRONE 1 66657U 25274H 26033.69815469 .00003243 00000-0 31814-3 0 9994 2 66657 97.7430 325.0335 0014051 99.8041 260.4766 14.92833263 10154 K-HERO 1 66660U 25274L 26033.74251898 .00002983 00000-0 28949-3 0 9999 2 66660 97.7432 325.1346 0015776 104.3336 255.9636 14.93306406 10168 SNUGLITE-III DURI 1 66661U 25274M 26033.87063819 .00002388 00000-0 23223-3 0 9997 2 66661 97.7429 325.2719 0016325 105.0877 255.2150 14.93412220 10187 SilverSat 1 66909U 98067XV 26033.61933034 .00106907 00000-0 12156-2 0 9993 2 66909 51.6261 242.9747 0002946 183.6146 176.4827 15.61466650 9697 SAKHACUBE-CHOLBON 1 67290U 25313AU 26034.24289802 .00012323 00000-0 54083-3 0 9992 2 67290 97.4074 111.1442 0011071 106.0233 254.2223 15.22036754 5589 QMR-KWT 1 67291U 25313AV 26034.24045002 .00017150 00000-0 74528-3 0 9994 2 67291 97.4073 111.1474 0010771 105.7682 254.4743 15.22301471 5584 IO-86 1 40931U 25360.30710720 .00000000 00000-0 12800-3 0 00 2 40931 6.0006 332.5373 0012733 338.8432 8.1437 14.79075515 01